Location: Langballe
(56.0754°N, 10.2002°E)
Time: 17:57:25
(UTC+00:00)

Daily predictions for brighter satellites

Satellite Brightness Start Highest point End
(mag) Time Altitude Azimuth Time Altitude Azimuth Time Altitude Azimuth
ERS-1 Rocket 3.4 20:58:28 10° S 21:03:28 61° WSW 21:08:29 10° NNW
USA 215 3.7 20:58:54 10° ENE 21:04:56 37° SE 21:10:56 10° SSW
Cosmos 2278 Rocket 2.3 21:01:15 10° NW 21:06:59 88° NE 21:12:40 10° SSE
Cosmos 1892 4.0 21:07:30 10° SE 21:10:39 25° E 21:13:49 10° NNE
Cosmos 1844 Rocket 4.2 21:06:39 10° NW 21:11:17 28° WSW 21:15:55 10° SSW
ATLAS 5 CENTAUR R/B 1.6 21:09:09 10° SW 21:13:24 68° SE 21:18:18 10° NE
Aureole 2 Rocket 4.0 21:11:25 10° N 21:13:34 19° NE 21:15:44 10° E
Meteor 1-11 4.3 21:08:48 10° S 21:14:27 87° ESE 21:20:13 10° NNE
Cosmos 1943 Rocket 3.8 21:09:44 10° NNW 21:14:47 31° NNE 21:19:49 10° E
SPOT 5 3.6 21:15:21 10° S 21:20:13 50° W 21:24:52 10° NNW
Lacrosse 5 rocket 1.5 21:16:42 10° W 21:20:55 77° N 21:24:53 10° E
Cosmos 2056 Rocket 4.1 21:16:27 10° NNW 21:21:46 54° NE 21:27:06 10° SE
SL-16 R/B 4.2 21:20:49 10° ESE 21:22:40 12° E 21:24:32 10° ENE
Nadezhda 3 Rocket 4.3 21:16:20 10° N 21:22:42 62° ENE 21:28:58 10° SSE
Spot 4 4.4 21:20:23 10° SE 21:24:58 49° ENE 21:29:35 10° N
USA 81 4.3 21:22:02 10° SSW 21:27:19 77° W 21:32:39 10° N
Cosmos 2058 3.6 21:25:12 10° SSE 21:29:04 39° E 21:32:57 10° NNE
Cosmos 2154 Rocket 4.5 21:23:30 10° SSE 21:29:19 46° E 21:35:13 10° NNE
Cosmos 1408 3.9 21:29:06 10° SSE 21:32:06 25° E 21:35:06 10° NNE
TSX-5 4.0 21:30:34 10° NW 21:33:51 52° SW 21:37:35 11° SSE
In-Cosmos 22 Rocket 4.4 21:30:23 10° S 21:35:31 52° E 21:40:42 10° NNE
Cosmos 2074 Rocket 4.1 21:30:22 10° S 21:36:34 73° E 21:42:47 10° NNE
Cosmos 1076 Rocket 4.0 21:36:11 10° SSE 21:40:17 45° E 21:44:23 10° NNE
Cosmos 1680 Rocket 4.3 21:35:56 10° SSE 21:40:44 35° ESE 21:45:34 10° NE
USA 267 3.6 21:34:30 10° SE 21:40:51 50° SW 21:47:13 10° WNW
CZ-4C R/B 3.5 21:37:13 10° WNW 21:43:28 54° NNE 21:50:57 10° E
Cosmos 1842 Rocket 4.2 21:40:07 10° NNW 21:44:21 50° W 21:48:32 10° S
JB-3 4.2 21:41:54 10° NNE 21:45:47 74° ESE 21:49:35 10° S
COSMOS 2455 3.6 21:41:13 10° NW 21:47:10 54° NE 21:53:05 10° ESE
Cosmos 2322 Rocket 4.0 21:43:12 10° WSW 21:48:23 36° NW 21:53:36 10° NNE
MTI 3.6 21:46:42 10° NNE 21:49:49 88° ESE 21:52:54 10° SSW
Cosmos 2151 4.2 21:47:18 11° SSE 21:50:49 29° E 21:54:31 10° NNE
ATLAS CENTAUR R/B 3.2 21:53:11 10° WNW 21:55:33 16° WSW 21:57:53 10° SSW
Cosmos 923 Rocket 4.2 21:52:59 10° S 21:58:07 57° ESE 22:03:20 10° NNE
Cosmos 1151 Rocket 4.0 21:55:09 10° N 21:59:15 38° ENE 22:03:13 10° SE
Cosmos 2369 Rocket 3.4 21:54:06 10° NNW 21:59:20 38° NE 22:04:33 10° ESE
Cosmos 1825 3.0 21:58:09 13° SSE 22:01:10 36° E 22:04:40 10° NNE
ALOS 2 3.1 21:58:03 11° SE 22:02:09 53° ENE 22:06:26 10° N
APEX 3.8 21:59:34 10° NNW 22:02:10 33° NE 22:04:42 10° ESE
Cosmos 1980 4.0 21:57:32 10° S 22:02:58 50° ESE 22:08:25 10° NE
Cosmos 371 Rocket 3.8 22:02:05 10° NNW 22:06:55 57° NE 22:11:42 10° SE
GP-B 4.0 22:03:31 10° NNE 22:07:41 37° E 22:11:23 12° SSE
COSMOS 2428 2.8 22:02:10 10° SW 22:07:51 84° NW 22:13:35 10° NE
Cosmos 2322 4.4 22:06:14 10° SW 22:11:53 58° NW 22:17:34 10° NNE
Cosmos 1624 Rocket 4.1 22:07:03 10° NNW 22:12:19 75° WSW 22:16:57 13° SSE
NOSS 3-4 (A) 4.1 22:06:20 10° NW 22:12:57 54° SW 22:19:47 12° SSE
NOSS 3-4 (C) 4.1 22:06:26 10° NW 22:13:04 55° SW 22:19:55 12° SSE
NOSS 0 Rocket 4.0 22:09:14 10° SSW 22:15:19 67° ESE 22:21:28 10° NE
Terra 3.6 22:11:59 10° SSW 22:15:54 25° W 22:19:49 10° NW
Cosmos 1782 4.4 22:16:25 10° N 22:19:49 26° ENE 22:23:10 10° ESE
Cosmos 2237 Rocket 2.3 22:15:36 10° SSW 22:21:12 62° ESE 22:26:50 10° NE
SL-4 R/B 2.1 22:19:54 13° ESE 22:21:16 25° ENE 22:23:04 10° N
Genesis I 4.0 22:18:36 13° S 22:21:36 32° SE 22:25:05 10° ENE
Cosmos 2219 Rocket 2.7 22:18:10 10° SW 22:23:44 64° NW 22:29:21 10° NNE
Cosmos 2344 4.0 22:16:56 10° SSW 22:23:53 45° ESE 22:31:36 10° NE
Cosmos 2360 Rocket 3.9 22:21:05 10° WSW 22:26:16 36° NW 22:31:29 10° NNE
NOSS 3-3 (A) 4.1 22:20:18 10° SW 22:26:23 86° SE 22:33:25 10° NE
NOSS 3-3 (C) 4.1 22:20:24 10° SW 22:26:30 86° SE 22:33:32 10° NE
Thor Agena Rocket 3.5 22:23:11 10° NNE 22:28:22 80° ESE 22:33:18 11° SSW
Cosmos 2333 Rocket 3.0 22:28:21 10° SW 22:33:57 56° NW 22:39:39 10° NNE
Cosmos 2221 4.5 22:31:24 10° NW 22:34:49 22° W 22:38:13 10° SW
RESURS DK-1 3.7 22:33:54 10° NNW 22:37:48 38° NE 22:41:41 10° ESE
Cosmos 1515 Rocket 4.1 22:35:14 10° N 22:39:30 52° ENE 22:43:15 13° SSE
GEOS 3 Rocket 4.5 22:34:19 10° NE 22:39:34 56° NNW 22:44:51 10° WSW
ATLAS 2AS CENTAUR R/B 3.4 22:33:31 10° NW 22:40:39 44° WSW 22:46:25 14° S
BREEZE-M DEB (TANK) 3.0 22:38:06 10° WSW 22:40:41 18° SSW 22:41:21 17° S
EO 1 Del DPAF 3.2 22:37:47 10° NNE 22:41:35 81° WNW 22:44:59 12° SSW
Cosmos 1892 3.9 22:42:38 10° SW 22:46:11 38° WNW 22:49:48 10° N
Cosmos 1328 Rocket 3.5 22:42:36 10° NNW 22:46:58 89° E 22:50:25 16° S
Aureole 2 Rocket 2.8 22:44:39 10° NW 22:47:16 37° WSW 22:48:59 18° S
Cosmos 1766 Rocket 3.7 22:44:24 15° S 22:47:55 64° E 22:52:19 10° NNE
USA 215 3.2 22:42:00 10° ENE 22:48:36 76° SSE 22:55:10 10° WSW
Cosmos 1606 2.9 22:45:27 10° NNW 22:49:20 69° W 22:52:19 16° S
Cosmos 2278 Rocket 3.8 22:46:07 10° NW 22:50:25 23° WSW 22:54:43 10° SSW
Okean 3 Rocket 3.6 22:47:02 15° S 22:50:45 76° E 22:55:11 10° NNE
Cosmos 2297 4.0 22:46:49 10° NW 22:52:28 58° WSW 22:57:11 15° S
Cosmos 304 Rocket 4.0 22:48:33 10° NNW 22:53:24 70° ENE 22:58:04 11° SE
Cosmos 2112 Rocket 4.1 22:48:49 10° SSW 22:54:12 86° WNW 22:59:36 10° NNE
Cosmos 2228 Rocket 4.0 22:50:42 10° N 22:55:08 45° ENE 22:59:19 11° SE
Cosmos 1420 Rocket 4.2 22:51:02 10° NNW 22:56:15 63° WSW 23:00:36 15° S
Cosmos 2218 Rocket 4.2 22:50:54 14° S 22:56:24 67° E 23:02:39 10° NNE
ATLAS 5 CENTAUR R/B 3.1 22:53:57 10° W 22:58:19 45° NNW 23:03:24 10° NE
Cosmos 158 Rocket 4.0 22:53:28 10° SSW 22:58:21 77° WNW 23:03:19 10° NNE
Cosmos 1943 Rocket 2.2 22:53:30 10° NW 22:59:14 88° WSW 23:04:40 11° SSE
Lacrosse 5 rocket 1.1 22:56:03 10° WNW 23:00:08 73° SSW 23:03:59 10° ESE
Cosmos 2366 rocket 4.2 22:56:35 14° S 23:02:05 70° E 23:08:24 10° NNE
Cosmos 1633 3.7 23:01:11 15° SSE 23:03:41 33° E 23:06:58 10° NNE
SL-16 R/B 2.5 23:00:46 14° S 23:05:33 54° ESE 23:11:06 10° NE
Cosmos 1408 3.9 23:03:43 10° SW 23:07:01 34° WNW 23:10:20 10° N
YAOGAN 11 4.1 23:09:09 15° SSE 23:12:43 87° WSW 23:17:12 10° NNW
Cosmos 1743 Rocket 4.3 23:12:36 15° SSE 23:15:52 42° E 23:20:00 10° NNE
Cosmos 332 Rocket 4.0 23:12:56 10° NNW 23:17:40 60° WSW 23:21:28 16° S
Cosmos 2341 Rocket 4.3 23:11:47 11° SSW 23:17:48 66° WNW 23:24:01 10° N
Cosmos 1331 Rocket 4.4 23:12:34 10° NNW 23:17:53 66° ENE 23:23:10 10° SE
Cosmos 1680 Rocket 4.3 23:17:30 10° SW 23:22:43 53° NW 23:27:58 10° NNE
Meteor 2-3 Rocket 3.8 23:21:02 15° S 23:25:49 79° ESE 23:31:34 10° NNE
Cosmos 405 3.0 23:23:00 10° NNW 23:26:35 79° WSW 23:29:08 18° S
Cosmos 2151 4.0 23:23:55 10° SW 23:27:59 41° WNW 23:32:04 10° N
Helios 1A 3.3 23:24:53 16° S 23:28:00 53° WSW 23:32:08 10° NNW
Cosmos 1452 Rocket 3.9 23:25:55 10° NW 23:31:00 50° WSW 23:35:07 15° S
CZ-4C R/B 2.9 23:25:46 10° NW 23:32:34 80° SW 23:40:37 10° SE
Meteor 2-6 Rocket 4.3 23:27:22 10° NNW 23:32:56 77° ENE 23:37:54 12° SSE
COSMOS 2455 3.1 23:27:21 10° NW 23:33:12 52° WSW 23:38:24 13° SSE
Cosmos 389 Rocket 4.3 23:30:07 10° N 23:33:13 27° ENE 23:36:16 10° SE
PSLV R/B 4.2 23:29:17 10° NNE 23:33:20 44° E 23:36:34 15° SSE
Cosmos 1110 Rocket 4.0 23:29:44 10° NNW 23:35:03 89° NE 23:40:16 11° SSE
Cosmos 1933 4.5 23:31:38 10° NNW 23:35:16 33° W 23:38:13 14° SSW
SL-8 Rocket 4.3 23:30:59 12° SSW 23:36:45 64° WNW 23:42:54 10° N
Cosmos 1825 3.9 23:33:28 10° SW 23:36:46 27° WNW 23:40:05 10° N
Cosmos 1151 Rocket 4.2 23:32:52 10° NNW 23:36:46 33° W 23:40:03 13° SSW
Cosmos 1340 2.8 23:34:23 16° SSW 23:37:21 71° WNW 23:41:08 10° NNE
ALOS 2 4.1 23:35:27 12° SSW 23:38:45 26° W 23:42:27 10° NW
Cosmos 1408 Rocket 3.7 23:35:56 15° SSW 23:39:32 72° WNW 23:43:59 10° N
SL-16 R/B 3.6 23:34:18 10° SE 23:40:08 43° ENE 23:46:00 10° N
Cosmos 1727 Rocket 4.3 23:36:39 10° NNW 23:42:46 61° W 23:48:04 14° S
Resurs 1-4 Rocket 4.1 23:39:42 10° NE 23:43:22 18° E 23:46:59 10° SE
APEX 4.1 23:41:21 10° WNW 23:43:25 19° WSW 23:44:21 16° SW
Cosmos 2369 Rocket 2.3 23:38:10 10° NW 23:43:43 64° WSW 23:48:49 12° SSE
GP-B 4.3 23:40:57 10° NNW 23:44:58 34° WNW 23:48:50 11° SW
SeaSat 1 4.3 23:44:16 10° ENE 23:47:35 18° ESE 23:50:54 10° SSE
Cosmos 44 3.0 23:43:37 11° SW 23:47:50 77° SE 23:52:22 10° NE
Cosmos 1500 Rocket 3.6 23:44:49 16° S 23:48:19 78° E 23:52:43 10° NNE
SL-4 R/B 3.0 23:48:58 11° WSW 23:49:38 12° W 23:50:26 10° WNW
Helios 1B rocket 2.8 23:48:06 10° NNE 23:52:11 54° ESE 23:55:23 15° S
